Time,TemperatureF,DewpointF,PressureIn,WindDirection,WindDirectionDegrees,WindSpeedMPH,WindSpeedGustMPH,Humidity,HourlyPrecipIn,Conditions,Clouds,dailyrainin,SoftwareType,DateUTC
2013-12-14 00:00:00,34.6,29.7,30.26,SSE,161,0.0,0.0,82,0.00,,,0.00,LWC V2.00 B2112,2013-12-14 05:00:00,
2013-12-14 00:01:00,34.6,29.7,30.26,SSE,161,0.0,0.0,82,0.00,,,0.00,LWC V2.00 B2112,2013-12-14 05:01:00,
2013-12-14 00:03:00,34.6,29.7,30.26,SSE,161,0.0,0.0,82,0.00,,,0.00,LWC V2.00 B2112,2013-12-14 05:03:00,
2013-12-14 00:08:00,34.6,29.7,30.26,SSE,161,0.0,0.0,82,0.00,,,0.00,LWC V2.00 B2112,2013-12-14 05:08:00,
2013-12-14 00:13:00,34.6,29.7,30.26,SSE,161,0.0,0.0,82,0.00,,,0.00,LWC V2.00 B2112,2013-12-14 05:13:00,
2013-12-14 00:18:00,34.6,29.7,30.26,SSE,161,0.0,0.0,82,0.00,,,0.00,LWC V2.00 B2112,2013-12-14 05:18:00,
2013-12-14 00:23:00,34.6,29.7,30.25,SSE,161,0.0,0.0,82,0.00,,,0.00,LWC V2.00 B2112,2013-12-14 05:23:00,
2013-12-14 00:28:00,34.6,29.7,30.25,SSE,161,0.0,0.0,82,0.00,,,0.00,LWC V2.00 B2112,2013-12-14 05:28:00,
2013-12-14 00:33:00,34.7,29.8,30.25,SSE,161,0.0,0.0,82,0.00,,,0.00,LWC V2.00 B2112,2013-12-14 05:33:00,
2013-12-14 00:38:00,34.7,30.1,30.25,SSE,161,0.0,0.0,83,0.00,,,0.00,LWC V2.00 B2112,2013-12-14 05:38:00,
2013-12-14 00:43:00,34.7,30.1,30.25,SSE,161,0.0,0.0,83,0.00,,,0.00,LWC V2.00 B2112,2013-12-14 05:43:00,
2013-12-14 00:48:00,34.9,30.3,30.25,SSE,161,0.0,0.0,83,0.00,,,0.00,LWC V2.00 B2112,2013-12-14 05:48:00,
2013-12-14 00:53:00,34.9,30.3,30.26,SSE,161,0.0,0.0,83,0.00,,,0.00,LWC V2.00 B2112,2013-12-14 05:53:00,
2013-12-14 00:58:00,34.9,30.3,30.26,SSE,161,0.0,0.0,83,0.00,,,0.00,LWC V2.00 B2112,2013-12-14 05:58:00,
2013-12-14 01:03:00,35.0,30.4,30.26,SSE,161,0.0,0.0,83,0.00,,,0.00,LWC V2.00 B2112,2013-12-14 06:03:00,
2013-12-14 01:08:00,35.0,30.4,30.25,SSE,161,0.0,0.0,83,0.00,,,0.00,LWC V2.00 B2112,2013-12-14 06:08:00,
2013-12-14 01:13:00,35.0,30.4,30.25,SSE,161,0.0,0.0,83,0.00,,,0.00,LWC V2.00 B2112,2013-12-14 06:13:00,
2013-12-14 01:18:00,34.9,30.3,30.25,SSE,161,0.0,0.0,83,0.00,,,0.00,LWC V2.00 B2112,2013-12-14 06:18:00,
2013-12-14 01:23:00,34.9,30.6,30.25,SSE,161,0.0,0.0,84,0.00,,,0.00,LWC V2.00 B2112,2013-12-14 06:23:00,
2013-12-14 01:28:00,34.9,30.6,30.25,SSE,161,0.0,0.0,84,0.00,,,0.00,LWC V2.00 B2112,2013-12-14 06:28:00,
2013-12-14 01:33:00,34.9,30.6,30.25,SSE,161,0.0,0.0,84,0.00,,,0.00,LWC V2.00 B2112,2013-12-14 06:33:00,
2013-12-14 01:38:00,34.9,30.6,30.24,SSE,161,0.0,0.0,84,0.00,,,0.00,LWC V2.00 B2112,2013-12-14 06:38:00,
2013-12-14 01:43:00,34.9,30.6,30.24,SSE,161,0.0,0.0,84,0.00,,,0.00,LWC V2.00 B2112,2013-12-14 06:43:00,
2013-12-14 01:48:00,34.9,30.6,30.24,SSE,161,0.0,0.0,84,0.00,,,0.00,LWC V2.00 B2112,2013-12-14 06:48:00,
2013-12-14 01:53:00,34.9,30.6,30.24,SSE,161,0.0,0.0,84,0.00,,,0.00,LWC V2.00 B2112,2013-12-14 06:53:00,
2013-12-14 01:58:00,35.0,30.7,30.24,SSE,161,0.0,0.0,84,0.00,,,0.00,LWC V2.00 B2112,2013-12-14 06:58:00,
2013-12-14 02:03:00,35.0,30.7,30.24,SSE,161,0.0,0.0,84,0.00,,,0.00,LWC V2.00 B2112,2013-12-14 07:03:00,
2013-12-14 02:08:00,35.0,30.7,30.23,SSE,161,0.0,0.0,84,0.00,,,0.00,LWC V2.00 B2112,2013-12-14 07:08:00,
2013-12-14 02:13:00,35.0,30.7,30.23,SSE,161,0.0,0.0,84,0.00,,,0.00,LWC V2.00 B2112,2013-12-14 07:13:00,
2013-12-14 02:18:00,35.0,30.7,30.23,SSE,161,0.0,0.0,84,0.00,,,0.00,LWC V2.00 B2112,2013-12-14 07:18:00,
2013-12-14 02:23:00,35.2,30.9,30.23,SSE,161,0.0,0.0,84,0.00,,,0.00,LWC V2.00 B2112,2013-12-14 07:23:00,
2013-12-14 02:28:00,35.2,30.9,30.23,SSE,161,0.0,0.0,84,0.00,,,0.00,LWC V2.00 B2112,2013-12-14 07:28:00,
2013-12-14 02:33:00,35.2,30.9,30.23,SSE,161,0.0,0.0,84,0.00,,,0.00,LWC V2.00 B2112,2013-12-14 07:33:00,
2013-12-14 02:38:00,35.3,31.0,30.23,SSE,161,0.0,0.0,84,0.00,,,0.00,LWC V2.00 B2112,2013-12-14 07:38:00,
2013-12-14 02:43:00,35.3,31.2,30.23,SSE,161,0.0,0.0,85,0.00,,,0.00,LWC V2.00 B2112,2013-12-14 07:43:00,
2013-12-14 02:48:00,35.3,31.2,30.23,SSE,161,0.0,0.0,85,0.00,,,0.00,LWC V2.00 B2112,2013-12-14 07:48:00,
2013-12-14 02:53:00,35.3,31.2,30.24,SSE,161,0.0,0.0,85,0.00,,,0.00,LWC V2.00 B2112,2013-12-14 07:53:00,
2013-12-14 02:58:00,35.3,31.2,30.24,SSE,161,0.0,0.0,85,0.00,,,0.00,LWC V2.00 B2112,2013-12-14 07:58:00,
2013-12-14 03:03:00,35.3,31.2,30.24,SSE,161,0.0,0.0,85,0.00,,,0.00,LWC V2.00 B2112,2013-12-14 08:03:00,
2013-12-14 03:08:00,35.3,31.2,30.24,SSE,161,0.0,0.0,85,0.00,,,0.00,LWC V2.00 B2112,2013-12-14 08:08:00,
2013-12-14 03:13:00,35.3,31.2,30.24,SSE,161,0.0,0.0,85,0.00,,,0.00,LWC V2.00 B2112,2013-12-14 08:13:00,
2013-12-14 03:18:00,35.3,31.5,30.24,SSE,161,0.0,0.0,86,0.00,,,0.00,LWC V2.00 B2112,2013-12-14 08:18:00,
2013-12-14 03:23:00,35.3,31.5,30.24,SSE,161,0.0,0.0,86,0.00,,,0.00,LWC V2.00 B2112,2013-12-14 08:23:00,
2013-12-14 03:28:00,35.3,31.5,30.24,SSE,161,0.0,0.0,86,0.00,,,0.00,LWC V2.00 B2112,2013-12-14 08:28:00,
2013-12-14 03:33:00,35.3,31.5,30.24,SSE,161,0.0,0.0,86,0.00,,,0.00,LWC V2.00 B2112,2013-12-14 08:33:00,
2013-12-14 03:38:00,35.3,31.5,30.25,SSE,161,0.0,0.0,86,0.00,,,0.00,LWC V2.00 B2112,2013-12-14 08:38:00,
2013-12-14 03:43:00,35.3,31.5,30.25,SSE,161,0.0,0.0,86,0.00,,,0.00,LWC V2.00 B2112,2013-12-14 08:43:00,
2013-12-14 03:48:00,35.5,31.7,30.25,SSE,161,0.0,0.0,86,0.00,,,0.00,LWC V2.00 B2112,2013-12-14 08:48:00,
2013-12-14 03:53:00,35.5,31.7,30.25,SSE,161,0.0,0.0,86,0.00,,,0.00,LWC V2.00 B2112,2013-12-14 08:53:00,
2013-12-14 03:58:00,35.5,31.7,30.25,SSE,161,0.0,0.0,86,0.00,,,0.00,LWC V2.00 B2112,2013-12-14 08:58:00,
2013-12-14 04:03:00,35.5,31.7,30.25,SSE,161,0.0,0.0,86,0.00,,,0.00,LWC V2.00 B2112,2013-12-14 09:03:00,
2013-12-14 04:08:00,35.5,31.4,30.23,SSE,161,0.0,0.0,85,0.00,,,0.00,LWC V2.00 B2112,2013-12-14 09:08:00,
2013-12-14 04:13:00,35.5,31.4,30.23,SSE,161,0.0,0.0,85,0.00,,,0.00,LWC V2.00 B2112,2013-12-14 09:13:00,
2013-12-14 04:18:00,35.5,31.4,30.23,SSE,161,0.0,0.0,85,0.00,,,0.00,LWC V2.00 B2112,2013-12-14 09:18:00,
2013-12-14 04:23:00,35.5,31.4,30.23,SSE,161,0.0,0.0,85,0.00,,,0.00,LWC V2.00 B2112,2013-12-14 09:23:00,
2013-12-14 04:28:00,35.5,31.4,30.23,SSE,161,0.0,0.0,85,0.00,,,0.00,LWC V2.00 B2112,2013-12-14 09:28:00,
2013-12-14 04:33:00,35.5,31.4,30.23,SSE,161,0.0,0.0,85,0.00,,,0.00,LWC V2.00 B2112,2013-12-14 09:33:00,
2013-12-14 04:38:00,35.5,31.4,30.23,SSE,161,0.0,0.0,85,0.00,,,0.00,LWC V2.00 B2112,2013-12-14 09:38:00,
2013-12-14 04:43:00,35.5,31.4,30.23,SSE,161,0.0,0.0,85,0.00,,,0.00,LWC V2.00 B2112,2013-12-14 09:43:00,
2013-12-14 04:48:00,35.6,31.5,30.23,SSE,161,0.0,0.0,85,0.00,,,0.00,LWC V2.00 B2112,2013-12-14 09:48:00,
2013-12-14 04:53:00,35.6,31.5,30.22,SSE,161,0.0,0.0,85,0.00,,,0.00,LWC V2.00 B2112,2013-12-14 09:53:00,
2013-12-14 04:58:00,35.6,31.5,30.22,SSE,161,0.0,0.0,85,0.00,,,0.00,LWC V2.00 B2112,2013-12-14 09:58:00,
2013-12-14 05:03:00,35.8,32.0,30.22,SSE,161,0.0,0.0,86,0.00,,,0.00,LWC V2.00 B2112,2013-12-14 10:03:00,
2013-12-14 05:08:00,35.8,32.0,30.22,SSE,161,0.0,0.0,86,0.00,,,0.00,LWC V2.00 B2112,2013-12-14 10:08:00,
2013-12-14 05:13:00,35.9,32.1,30.22,SSE,161,0.0,0.0,86,0.00,,,0.00,LWC V2.00 B2112,2013-12-14 10:13:00,
2013-12-14 05:18:00,35.9,32.1,30.22,SSE,161,0.0,0.0,86,0.00,,,0.00,LWC V2.00 B2112,2013-12-14 10:18:00,
2013-12-14 05:23:00,35.9,32.1,30.23,SSE,161,0.0,0.0,86,0.00,,,0.00,LWC V2.00 B2112,2013-12-14 10:23:00,
2013-12-14 05:28:00,36.0,32.2,30.23,SE,138,0.0,1.0,86,0.00,,,0.00,LWC V2.00 B2112,2013-12-14 10:28:00,
2013-12-14 05:33:00,36.0,32.2,30.23,WSW,242,0.0,1.0,86,0.00,,,0.00,LWC V2.00 B2112,2013-12-14 10:33:00,
2013-12-14 05:38:00,36.3,32.5,30.22,SW,236,0.0,1.0,86,0.00,,,0.00,LWC V2.00 B2112,2013-12-14 10:38:00,
2013-12-14 05:43:00,36.5,32.7,30.22,SW,236,0.0,0.0,86,0.00,,,0.00,LWC V2.00 B2112,2013-12-14 10:43:00,
2013-12-14 05:48:00,36.5,32.7,30.22,SW,236,0.0,0.0,86,0.00,,,0.00,LWC V2.00 B2112,2013-12-14 10:48:00,
2013-12-14 05:53:00,36.8,32.7,30.20,SW,236,0.0,0.0,85,0.00,,,0.00,LWC V2.00 B2112,2013-12-14 10:53:00,
2013-12-14 05:58:00,36.9,32.8,30.20,SW,236,0.0,0.0,85,0.00,,,0.00,LWC V2.00 B2112,2013-12-14 10:58:00,
2013-12-14 06:03:00,37.0,33.2,30.20,SW,236,0.0,0.0,86,0.00,,,0.00,LWC V2.00 B2112,2013-12-14 11:03:00,
2013-12-14 06:08:00,37.0,32.9,30.22,SW,236,0.0,0.0,85,0.00,,,0.00,LWC V2.00 B2112,2013-12-14 11:08:00,
2013-12-14 06:13:00,37.0,32.9,30.22,SW,236,0.0,0.0,85,0.00,,,0.00,LWC V2.00 B2112,2013-12-14 11:13:00,
2013-12-14 06:18:00,37.0,32.9,30.22,SW,236,0.0,0.0,85,0.00,,,0.00,LWC V2.00 B2112,2013-12-14 11:18:00,
2013-12-14 06:23:00,37.0,33.5,30.20,SW,236,0.0,0.0,87,0.00,,,0.00,LWC V2.00 B2112,2013-12-14 11:23:00,
2013-12-14 06:28:00,37.2,34.0,30.20,SW,236,0.0,0.0,88,0.00,,,0.00,LWC V2.00 B2112,2013-12-14 11:28:00,
2013-12-14 06:33:00,37.2,34.0,30.20,SW,236,0.0,0.0,88,0.00,,,0.01,LWC V2.00 B2112,2013-12-14 11:33:00,
2013-12-14 06:38:00,37.2,34.3,30.18,SW,236,0.0,0.0,89,0.00,,,0.01,LWC V2.00 B2112,2013-12-14 11:38:00,
2013-12-14 06:43:00,37.2,34.3,30.18,SW,236,0.0,0.0,89,0.00,,,0.01,LWC V2.00 B2112,2013-12-14 11:43:00,
2013-12-14 06:48:00,37.2,34.5,30.18,SW,236,0.0,0.0,90,0.00,,,0.01,LWC V2.00 B2112,2013-12-14 11:48:00,
2013-12-14 06:53:00,37.2,34.5,30.18,SW,236,0.0,0.0,90,0.00,,,0.01,LWC V2.00 B2112,2013-12-14 11:53:00,
2013-12-14 06:58:00,37.2,34.5,30.18,SW,236,0.0,0.0,90,0.00,,,0.01,LWC V2.00 B2112,2013-12-14 11:58:00,
2013-12-14 07:03:00,37.0,34.3,30.18,SW,236,0.0,0.0,90,0.00,,,0.01,LWC V2.00 B2112,2013-12-14 12:03:00,
2013-12-14 07:08:00,37.0,34.3,30.20,SW,236,0.0,0.0,90,0.00,,,0.01,LWC V2.00 B2112,2013-12-14 12:08:00,
2013-12-14 07:13:00,37.0,34.3,30.20,SW,236,0.0,0.0,90,0.00,,,0.01,LWC V2.00 B2112,2013-12-14 12:13:00,
2013-12-14 07:18:00,36.9,34.5,30.20,SW,236,0.0,0.0,91,0.00,,,0.01,LWC V2.00 B2112,2013-12-14 12:18:00,
2013-12-14 07:23:00,36.9,34.5,30.21,SW,236,0.0,0.0,91,0.00,,,0.01,LWC V2.00 B2112,2013-12-14 12:23:00,
2013-12-14 07:28:00,36.8,34.4,30.21,SW,236,0.0,0.0,91,0.00,,,0.01,LWC V2.00 B2112,2013-12-14 12:28:00,
2013-12-14 07:33:00,36.8,34.1,30.21,SW,236,0.0,0.0,90,0.00,,,0.01,LWC V2.00 B2112,2013-12-14 12:33:00,
2013-12-14 07:38:00,36.8,34.1,30.21,SW,236,0.0,0.0,90,0.00,,,0.01,LWC V2.00 B2112,2013-12-14 12:38:00,
2013-12-14 07:43:00,36.9,34.2,30.21,SW,236,0.0,0.0,90,0.00,,,0.01,LWC V2.00 B2112,2013-12-14 12:43:00,
2013-12-14 07:48:00,37.0,34.3,30.21,SW,236,0.0,0.0,90,0.00,,,0.01,LWC V2.00 B2112,2013-12-14 12:48:00,
2013-12-14 07:53:00,37.2,34.5,30.21,SW,236,0.0,0.0,90,0.00,,,0.01,LWC V2.00 B2112,2013-12-14 12:53:00,
2013-12-14 07:58:00,37.5,34.8,30.21,SW,236,0.0,0.0,90,0.00,,,0.01,LWC V2.00 B2112,2013-12-14 12:58:00,
2013-12-14 08:03:00,37.6,34.4,30.21,SW,236,0.0,0.0,88,0.00,,,0.01,LWC V2.00 B2112,2013-12-14 13:03:00,
2013-12-14 08:08:00,37.8,34.3,30.21,SW,236,0.0,0.0,87,0.00,,,0.01,LWC V2.00 B2112,2013-12-14 13:08:00,
2013-12-14 08:13:00,37.9,33.8,30.21,SW,236,0.0,0.0,85,0.00,,,0.01,LWC V2.00 B2112,2013-12-14 13:13:00,
2013-12-14 08:18:00,37.9,33.5,30.21,SW,236,0.0,0.0,84,0.00,,,0.01,LWC V2.00 B2112,2013-12-14 13:18:00,
2013-12-14 08:23:00,38.2,33.8,30.20,SW,236,0.0,0.0,84,0.00,,,0.01,LWC V2.00 B2112,2013-12-14 13:23:00,
2013-12-14 08:28:00,38.3,33.3,30.20,SW,236,0.0,0.0,82,0.00,,,0.01,LWC V2.00 B2112,2013-12-14 13:28:00,
2013-12-14 08:33:00,38.5,33.2,30.20,SW,236,0.0,0.0,81,0.00,,,0.01,LWC V2.00 B2112,2013-12-14 13:33:00,
2013-12-14 08:38:00,38.8,32.9,30.20,SW,236,0.0,0.0,79,0.00,,,0.01,LWC V2.00 B2112,2013-12-14 13:38:00,
2013-12-14 08:43:00,39.2,32.3,30.20,SW,236,0.0,0.0,76,0.00,,,0.01,LWC V2.00 B2112,2013-12-14 13:43:00,
2013-12-14 08:48:00,39.5,32.6,30.20,SW,236,0.0,1.0,76,0.00,,,0.01,LWC V2.00 B2112,2013-12-14 13:48:00,
2013-12-14 08:53:00,39.9,32.0,30.19,SW,236,0.0,0.0,73,0.00,,,0.01,LWC V2.00 B2112,2013-12-14 13:53:00,
2013-12-14 08:58:00,40.3,31.7,30.19,SW,236,0.0,0.0,71,0.00,,,0.01,LWC V2.00 B2112,2013-12-14 13:58:00,
2013-12-14 09:03:00,40.8,33.2,30.19,SW,236,0.0,0.0,74,0.00,,,0.01,LWC V2.00 B2112,2013-12-14 14:03:00,
2013-12-14 09:08:00,41.1,31.7,30.20,SW,236,0.0,0.0,69,0.00,,,0.01,LWC V2.00 B2112,2013-12-14 14:08:00,
2013-12-14 09:13:00,41.3,31.5,30.20,SW,236,0.0,0.0,68,0.00,,,0.01,LWC V2.00 B2112,2013-12-14 14:13:00,
2013-12-14 09:18:00,41.6,30.7,30.20,SW,236,0.0,0.0,65,0.00,,,0.01,LWC V2.00 B2112,2013-12-14 14:18:00,
2013-12-14 09:23:00,41.9,31.4,30.20,SW,236,0.0,0.0,66,0.00,,,0.01,LWC V2.00 B2112,2013-12-14 14:23:00,
2013-12-14 09:28:00,42.1,30.8,30.20,WSW,255,0.0,0.0,64,0.00,,,0.01,LWC V2.00 B2112,2013-12-14 14:28:00,
2013-12-14 09:33:00,42.5,30.4,30.20,ENE,58,0.0,0.0,62,0.00,,,0.01,LWC V2.00 B2112,2013-12-14 14:33:00,
2013-12-14 09:38:00,42.8,31.5,30.18,ENE,58,0.0,1.0,64,0.00,,,0.01,LWC V2.00 B2112,2013-12-14 14:38:00,
2013-12-14 09:43:00,43.1,30.2,30.18,ENE,58,0.0,0.0,60,0.00,,,0.01,LWC V2.00 B2112,2013-12-14 14:43:00,
2013-12-14 09:48:00,43.3,30.4,30.18,ENE,58,0.0,0.0,60,0.00,,,0.01,LWC V2.00 B2112,2013-12-14 14:48:00,
2013-12-14 09:53:00,43.5,30.1,30.18,ENE,59,0.0,0.0,59,0.00,,,0.01,LWC V2.00 B2112,2013-12-14 14:53:00,
2013-12-14 09:58:00,43.6,30.2,30.18,ENE,59,0.0,1.0,59,0.00,,,0.01,LWC V2.00 B2112,2013-12-14 14:58:00,
2013-12-14 10:03:00,43.8,30.0,30.18,ENE,59,0.0,0.0,58,0.00,,,0.01,LWC V2.00 B2112,2013-12-14 15:03:00,
2013-12-14 10:08:00,43.9,30.1,30.17,ENE,59,0.0,0.0,58,0.00,,,0.01,LWC V2.00 B2112,2013-12-14 15:08:00,
2013-12-14 10:13:00,44.1,31.1,30.17,ENE,59,0.0,1.0,60,0.00,,,0.01,LWC V2.00 B2112,2013-12-14 15:13:00,
2013-12-14 10:18:00,44.2,29.9,30.17,ENE,59,1.0,1.0,57,0.00,,,0.01,LWC V2.00 B2112,2013-12-14 15:18:00,
2013-12-14 10:23:00,44.6,29.9,30.14,NNE,24,0.0,3.0,56,0.00,,,0.01,LWC V2.00 B2112,2013-12-14 15:23:00,
2013-12-14 10:28:00,45.2,30.4,30.14,NNE,24,0.0,0.0,56,0.00,,,0.01,LWC V2.00 B2112,2013-12-14 15:28:00,
2013-12-14 10:33:00,45.5,30.3,30.14,North,0,0.0,1.0,55,0.00,,,0.01,LWC V2.00 B2112,2013-12-14 15:33:00,
2013-12-14 10:38:00,46.0,31.2,30.15,NNE,17,0.0,2.0,56,0.00,,,0.01,LWC V2.00 B2112,2013-12-14 15:38:00,
2013-12-14 10:43:00,46.2,30.9,30.15,NNE,18,0.0,0.0,55,0.00,,,0.01,LWC V2.00 B2112,2013-12-14 15:43:00,
2013-12-14 10:48:00,46.4,31.1,30.15,NNE,18,0.0,0.0,55,0.00,,,0.01,LWC V2.00 B2112,2013-12-14 15:48:00,
2013-12-14 10:53:00,46.5,30.8,30.14,NNE,18,0.0,2.0,54,0.00,,,0.01,LWC V2.00 B2112,2013-12-14 15:53:00,
2013-12-14 10:58:00,46.7,30.9,30.14,NNE,18,0.0,1.0,54,0.00,,,0.01,LWC V2.00 B2112,2013-12-14 15:58:00,
2013-12-14 11:03:00,46.8,31.5,30.14,North,0,0.0,0.0,55,0.00,,,0.01,LWC V2.00 B2112,2013-12-14 16:03:00,
2013-12-14 11:08:00,46.8,31.9,30.13,North,0,0.0,1.0,56,0.00,,,0.01,LWC V2.00 B2112,2013-12-14 16:08:00,
2013-12-14 11:13:00,46.8,33.2,30.13,NNE,19,0.0,0.0,59,0.00,,,0.01,LWC V2.00 B2112,2013-12-14 16:13:00,
2013-12-14 11:18:00,46.7,34.0,30.13,NNE,19,0.0,0.0,61,0.00,,,0.01,LWC V2.00 B2112,2013-12-14 16:18:00,
2013-12-14 11:23:00,46.4,34.1,30.11,NNE,19,0.0,0.0,62,0.00,,,0.01,LWC V2.00 B2112,2013-12-14 16:23:00,
2013-12-14 11:28:00,46.4,33.3,30.11,NNW,334,0.0,0.0,60,0.00,,,0.01,LWC V2.00 B2112,2013-12-14 16:28:00,
2013-12-14 11:33:00,46.4,34.1,30.11,NNW,334,0.0,1.0,62,0.00,,,0.01,LWC V2.00 B2112,2013-12-14 16:33:00,
2013-12-14 11:38:00,46.4,34.1,30.10,North,350,0.0,1.0,62,0.00,,,0.01,LWC V2.00 B2112,2013-12-14 16:38:00,
2013-12-14 11:43:00,46.5,35.8,30.10,North,350,0.0,0.0,66,0.00,,,0.01,LWC V2.00 B2112,2013-12-14 16:43:00,
2013-12-14 11:48:00,46.2,37.7,30.10,NNE,27,0.0,0.0,72,0.00,,,0.01,LWC V2.00 B2112,2013-12-14 16:48:00,
2013-12-14 11:53:00,46.0,38.2,30.09,NNE,27,0.0,1.0,74,0.00,,,0.02,LWC V2.00 B2112,2013-12-14 16:53:00,
2013-12-14 11:58:00,45.5,39.4,30.09,NNE,27,0.0,0.0,79,0.12,,,0.03,LWC V2.00 B2112,2013-12-14 16:58:00,
2013-12-14 12:03:00,44.9,39.4,30.09,NNE,17,0.0,0.0,81,0.10,,,0.04,LWC V2.00 B2112,2013-12-14 17:03:00,
2013-12-14 12:08:00,44.5,39.7,30.07,NNE,29,0.0,0.0,83,0.08,,,0.05,LWC V2.00 B2112,2013-12-14 17:08:00,
2013-12-14 12:13:00,44.1,39.6,30.07,NE,55,0.0,0.0,84,0.08,,,0.05,LWC V2.00 B2112,2013-12-14 17:13:00,
2013-12-14 12:18:00,43.9,39.7,30.07,NE,55,0.0,0.0,85,0.06,,,0.06,LWC V2.00 B2112,2013-12-14 17:18:00,
2013-12-14 12:23:00,43.8,39.9,30.07,NE,55,0.0,0.0,86,0.13,,,0.01,LWC V2.00 B2112,2013-12-14 17:23:00,
2013-12-14 12:28:00,43.5,39.9,30.07,NE,55,0.0,0.0,87,0.14,,,0.02,LWC V2.00 B2112,2013-12-14 17:28:00,
2013-12-14 12:33:00,43.3,40.0,30.07,NE,55,0.0,0.0,88,0.15,,,0.04,LWC V2.00 B2112,2013-12-14 17:33:00,
2013-12-14 12:38:00,43.2,40.2,30.06,NE,55,0.0,0.0,89,0.19,,,0.05,LWC V2.00 B2112,2013-12-14 17:38:00,
2013-12-14 12:43:00,43.1,40.1,30.06,NE,55,0.0,0.0,89,0.14,,,0.06,LWC V2.00 B2112,2013-12-14 17:43:00,
2013-12-14 12:48:00,42.9,40.2,30.06,NE,55,0.0,0.0,90,0.12,,,0.07,LWC V2.00 B2112,2013-12-14 17:48:00,
2013-12-14 12:53:00,42.8,40.4,30.04,NE,55,0.0,0.0,91,0.07,,,0.08,LWC V2.00 B2112,2013-12-14 17:53:00,
2013-12-14 12:58:00,42.8,40.6,30.04,NE,55,0.0,1.0,92,0.19,,,0.09,LWC V2.00 B2112,2013-12-14 17:58:00,
2013-12-14 13:03:00,42.6,40.4,30.04,NE,55,0.0,0.0,92,0.07,,,0.09,LWC V2.00 B2112,2013-12-14 18:03:00,
2013-12-14 13:08:00,42.6,40.7,30.01,NNE,16,1.0,1.0,93,0.05,,,0.09,LWC V2.00 B2112,2013-12-14 18:08:00,
2013-12-14 13:13:00,42.5,40.9,30.01,NNE,16,0.0,1.0,94,0.00,,,0.09,LWC V2.00 B2112,2013-12-14 18:13:00,
2013-12-14 13:18:00,42.6,41.0,30.01,North,11,0.0,1.0,94,0.00,,,0.09,LWC V2.00 B2112,2013-12-14 18:18:00,
2013-12-14 13:23:00,42.5,40.9,30.01,NNE,12,0.0,1.0,94,0.00,,,0.09,LWC V2.00 B2112,2013-12-14 18:23:00,
2013-12-14 13:28:00,42.5,41.2,30.01,NNE,12,0.0,0.0,95,0.00,,,0.09,LWC V2.00 B2112,2013-12-14 18:28:00,
2013-12-14 13:33:00,42.6,41.3,30.01,ENE,68,0.0,2.0,95,0.00,,,0.09,LWC V2.00 B2112,2013-12-14 18:33:00,
2013-12-14 13:38:00,42.6,41.3,29.95,ENE,68,0.0,0.0,95,0.00,,,0.09,LWC V2.00 B2112,2013-12-14 18:38:00,
2013-12-14 13:43:00,42.8,41.5,29.95,North,0,0.0,0.0,95,0.00,,,0.09,LWC V2.00 B2112,2013-12-14 18:43:00,
2013-12-14 13:48:00,43.1,42.0,29.95,North,0,0.0,0.0,96,0.00,,,0.09,LWC V2.00 B2112,2013-12-14 18:48:00,
2013-12-14 13:53:00,43.2,42.1,29.93,NE,36,0.0,0.0,96,0.00,,,0.09,LWC V2.00 B2112,2013-12-14 18:53:00,
2013-12-14 13:58:00,43.2,41.9,29.93,SE,133,0.0,1.0,95,0.00,,,0.09,LWC V2.00 B2112,2013-12-14 18:58:00,
2013-12-14 14:03:00,42.9,41.6,29.93,SE,133,0.0,0.0,95,0.00,,,0.09,LWC V2.00 B2112,2013-12-14 19:03:00,
2013-12-14 14:08:00,42.9,41.3,29.92,SE,133,0.0,0.0,94,0.00,,,0.09,LWC V2.00 B2112,2013-12-14 19:08:00,
2013-12-14 14:13:00,42.8,41.2,29.92,SE,133,0.0,0.0,94,0.00,,,0.09,LWC V2.00 B2112,2013-12-14 19:13:00,
2013-12-14 14:18:00,42.9,41.6,29.92,SE,133,0.0,0.0,95,0.00,,,0.09,LWC V2.00 B2112,2013-12-14 19:18:00,
2013-12-14 14:23:00,42.8,41.5,29.92,SE,133,0.0,0.0,95,0.00,,,0.09,LWC V2.00 B2112,2013-12-14 19:23:00,
2013-12-14 14:28:00,42.8,41.2,29.92,East,98,0.0,0.0,94,0.00,,,0.09,LWC V2.00 B2112,2013-12-14 19:28:00,
2013-12-14 14:33:00,42.8,41.5,29.92,East,84,0.0,1.0,95,0.00,,,0.09,LWC V2.00 B2112,2013-12-14 19:33:00,
2013-12-14 14:38:00,42.8,41.5,29.90,East,84,0.0,1.0,95,0.00,,,0.09,LWC V2.00 B2112,2013-12-14 19:38:00,
2013-12-14 14:43:00,42.8,41.2,29.90,East,84,0.0,0.0,94,0.00,,,0.09,LWC V2.00 B2112,2013-12-14 19:43:00,
2013-12-14 14:48:00,42.8,41.2,29.90,East,84,0.0,0.0,94,0.00,,,0.09,LWC V2.00 B2112,2013-12-14 19:48:00,
2013-12-14 14:53:00,42.8,41.2,29.89,East,84,0.0,1.0,94,0.00,,,0.09,LWC V2.00 B2112,2013-12-14 19:53:00,
2013-12-14 14:58:00,42.8,41.2,29.89,East,84,0.0,0.0,94,0.00,,,0.09,LWC V2.00 B2112,2013-12-14 19:58:00,
2013-12-14 15:03:00,42.8,41.2,29.89,ENE,58,0.0,1.0,94,0.00,,,0.09,LWC V2.00 B2112,2013-12-14 20:03:00,
2013-12-14 15:08:00,42.6,41.0,29.87,ENE,58,0.0,0.0,94,0.00,,,0.09,LWC V2.00 B2112,2013-12-14 20:08:00,
2013-12-14 15:13:00,42.6,40.7,29.87,ENE,59,0.0,0.0,93,0.00,,,0.09,LWC V2.00 B2112,2013-12-14 20:13:00,
2013-12-14 15:18:00,42.6,41.0,29.87,ENE,59,0.0,1.0,94,0.00,,,0.09,LWC V2.00 B2112,2013-12-14 20:18:00,
2013-12-14 15:23:00,42.6,41.0,29.87,ENE,59,0.0,0.0,94,0.00,,,0.09,LWC V2.00 B2112,2013-12-14 20:23:00,
2013-12-14 15:28:00,42.5,40.9,29.87,ENE,59,0.0,0.0,94,0.00,,,0.10,LWC V2.00 B2112,2013-12-14 20:28:00,
2013-12-14 15:33:00,42.5,40.9,29.87,North,0,0.0,1.0,94,0.10,,,0.11,LWC V2.00 B2112,2013-12-14 20:33:00,
2013-12-14 15:38:00,42.3,40.7,29.87,North,0,0.0,1.0,94,0.11,,,0.12,LWC V2.00 B2112,2013-12-14 20:38:00,
2013-12-14 15:43:00,42.3,40.7,29.87,North,0,0.0,0.0,94,0.18,,,0.14,LWC V2.00 B2112,2013-12-14 20:43:00,
2013-12-14 15:48:00,42.2,40.6,29.87,North,0,0.0,1.0,94,0.21,,,0.16,LWC V2.00 B2112,2013-12-14 20:48:00,
2013-12-14 15:53:00,42.2,40.9,29.85,North,0,0.0,0.0,95,0.56,,,0.19,LWC V2.00 B2112,2013-12-14 20:53:00,
2013-12-14 15:59:00,42.2,40.9,29.85,North,0,0.0,0.0,95,0.75,,,0.23,LWC V2.00 B2112,2013-12-14 20:59:00,
2013-12-14 16:04:00,42.2,40.9,29.85,North,0,0.0,0.0,95,0.54,,,0.26,LWC V2.00 B2112,2013-12-14 21:04:00,
2013-12-14 16:09:00,42.2,40.9,29.86,North,0,0.0,0.0,95,0.29,,,0.29,LWC V2.00 B2112,2013-12-14 21:09:00,
2013-12-14 16:14:00,42.1,41.0,29.86,North,0,0.0,0.0,96,0.18,,,0.30,LWC V2.00 B2112,2013-12-14 21:14:00,
2013-12-14 16:19:00,42.1,41.0,29.86,North,0,0.0,0.0,96,0.59,,,0.34,LWC V2.00 B2112,2013-12-14 21:19:00,
2013-12-14 16:24:00,42.1,41.0,29.87,North,0,0.0,0.0,96,0.64,,,0.39,LWC V2.00 B2112,2013-12-14 21:24:00,
2013-12-14 16:29:00,42.1,41.0,29.87,North,0,0.0,0.0,96,0.36,,,0.42,LWC V2.00 B2112,2013-12-14 21:29:00,
2013-12-14 16:34:00,41.9,40.8,29.87,North,0,0.0,0.0,96,0.23,,,0.44,LWC V2.00 B2112,2013-12-14 21:34:00,
2013-12-14 16:39:00,41.9,40.8,29.86,North,0,0.0,0.0,96,0.46,,,0.47,LWC V2.00 B2112,2013-12-14 21:39:00,
2013-12-14 16:44:00,41.9,40.8,29.86,West,280,0.0,0.0,96,0.19,,,0.49,LWC V2.00 B2112,2013-12-14 21:44:00,
2013-12-14 16:49:00,41.8,40.7,29.86,West,280,1.0,1.0,96,0.14,,,0.50,LWC V2.00 B2112,2013-12-14 21:49:00,
2013-12-14 16:54:00,41.8,40.7,29.84,West,280,0.0,1.0,96,0.14,,,0.52,LWC V2.00 B2112,2013-12-14 21:54:00,
2013-12-14 16:59:00,41.8,41.0,29.84,West,280,0.0,0.0,97,0.20,,,0.53,LWC V2.00 B2112,2013-12-14 21:59:00,
2013-12-14 17:04:00,41.6,40.8,29.84,West,280,0.0,1.0,97,0.22,,,0.55,LWC V2.00 B2112,2013-12-14 22:04:00,
2013-12-14 17:09:00,41.6,40.8,29.82,West,280,0.0,1.0,97,0.08,,,0.55,LWC V2.00 B2112,2013-12-14 22:09:00,
2013-12-14 17:14:00,41.6,40.8,29.82,West,280,0.0,0.0,97,0.07,,,0.56,LWC V2.00 B2112,2013-12-14 22:14:00,
2013-12-14 17:19:00,41.6,40.8,29.82,West,280,0.0,0.0,97,0.29,,,0.58,LWC V2.00 B2112,2013-12-14 22:19:00,
2013-12-14 17:24:00,41.6,40.8,29.83,West,280,0.0,0.0,97,0.43,,,0.61,LWC V2.00 B2112,2013-12-14 22:24:00,
2013-12-14 17:29:00,41.6,40.8,29.83,West,280,0.0,0.0,97,0.12,,,0.62,LWC V2.00 B2112,2013-12-14 22:29:00,
2013-12-14 17:34:00,41.6,40.8,29.83,West,280,0.0,0.0,97,0.30,,,0.65,LWC V2.00 B2112,2013-12-14 22:34:00,
2013-12-14 17:39:00,41.6,40.8,29.81,West,280,0.0,0.0,97,0.12,,,0.65,LWC V2.00 B2112,2013-12-14 22:39:00,
2013-12-14 17:44:00,41.6,40.8,29.81,West,280,0.0,0.0,97,0.09,,,0.66,LWC V2.00 B2112,2013-12-14 22:44:00,
2013-12-14 17:49:00,41.6,40.8,29.81,West,280,2.0,2.0,97,0.15,,,0.67,LWC V2.00 B2112,2013-12-14 22:49:00,
2013-12-14 17:54:00,41.9,41.4,29.85,ENE,76,0.0,3.0,98,1.16,,,0.72,LWC V2.00 B2112,2013-12-14 22:54:00,
2013-12-14 17:59:00,41.9,41.4,29.85,WNW,292,0.0,2.0,98,0.21,,,0.75,LWC V2.00 B2112,2013-12-14 22:59:00,
2013-12-14 18:04:00,42.1,41.6,29.85,WNW,294,0.0,1.0,98,0.47,,,0.79,LWC V2.00 B2112,2013-12-14 23:04:00,
2013-12-14 18:09:00,42.1,41.6,29.85,WNW,294,0.0,0.0,98,0.14,,,0.80,LWC V2.00 B2112,2013-12-14 23:09:00,
2013-12-14 18:14:00,42.1,41.6,29.85,WNW,294,0.0,0.0,98,0.13,,,0.81,LWC V2.00 B2112,2013-12-14 23:14:00,
2013-12-14 18:19:00,41.9,41.4,29.85,WNW,294,0.0,0.0,98,0.07,,,0.82,LWC V2.00 B2112,2013-12-14 23:19:00,
2013-12-14 18:24:00,41.9,41.4,29.84,WNW,294,0.0,0.0,98,0.18,,,0.83,LWC V2.00 B2112,2013-12-14 23:24:00,
2013-12-14 18:29:00,41.9,41.4,29.84,WNW,294,0.0,0.0,98,0.07,,,0.83,LWC V2.00 B2112,2013-12-14 23:29:00,
2013-12-14 18:34:00,41.9,41.4,29.84,WNW,294,0.0,0.0,98,0.05,,,0.83,LWC V2.00 B2112,2013-12-14 23:34:00,
2013-12-14 18:39:00,41.9,41.4,29.82,WNW,294,0.0,0.0,98,0.00,,,0.83,LWC V2.00 B2112,2013-12-14 23:39:00,
2013-12-14 18:44:00,41.9,41.4,29.82,WNW,294,0.0,0.0,98,0.00,,,0.83,LWC V2.00 B2112,2013-12-14 23:44:00,
2013-12-14 18:49:00,41.9,41.4,29.82,WNW,294,0.0,0.0,98,0.00,,,0.83,LWC V2.00 B2112,2013-12-14 23:49:00,
2013-12-14 18:54:00,41.9,41.4,29.81,WNW,294,0.0,0.0,98,0.00,,,0.83,LWC V2.00 B2112,2013-12-14 23:54:00,
2013-12-14 18:59:00,41.9,41.4,29.81,WNW,294,0.0,0.0,98,0.00,,,0.83,LWC V2.00 B2112,2013-12-14 23:59:00,
2013-12-14 19:04:00,41.9,41.4,29.81,WNW,294,0.0,0.0,98,0.00,,,0.83,LWC V2.00 B2112,2013-12-15 00:04:00,
2013-12-14 19:09:00,41.9,41.4,29.81,WNW,294,0.0,0.0,98,0.00,,,0.83,LWC V2.00 B2112,2013-12-15 00:09:00,
2013-12-14 19:14:00,41.9,41.4,29.81,WNW,294,0.0,0.0,98,0.00,,,0.83,LWC V2.00 B2112,2013-12-15 00:14:00,
2013-12-14 19:19:00,41.9,41.4,29.81,WNW,294,0.0,0.0,98,0.00,,,0.84,LWC V2.00 B2112,2013-12-15 00:19:00,
2013-12-14 19:24:00,41.8,41.3,29.81,WNW,294,0.0,0.0,98,0.11,,,0.85,LWC V2.00 B2112,2013-12-15 00:24:00,
2013-12-14 19:29:00,41.6,41.1,29.81,NE,42,0.0,1.0,98,0.08,,,0.85,LWC V2.00 B2112,2013-12-15 00:29:00,
2013-12-14 19:34:00,41.6,41.1,29.81,NE,35,0.0,0.0,98,0.05,,,0.85,LWC V2.00 B2112,2013-12-15 00:34:00,
2013-12-14 19:39:00,41.5,41.0,29.81,NE,35,0.0,0.0,98,0.04,,,0.86,LWC V2.00 B2112,2013-12-15 00:39:00,
2013-12-14 19:44:00,41.5,41.0,29.81,NE,35,0.0,0.0,98,0.04,,,0.86,LWC V2.00 B2112,2013-12-15 00:44:00,
2013-12-14 19:49:00,41.5,41.0,29.81,North,355,0.0,0.0,98,0.07,,,0.87,LWC V2.00 B2112,2013-12-15 00:49:00,
2013-12-14 19:54:00,41.5,41.0,29.79,North,351,0.0,0.0,98,0.07,,,0.87,LWC V2.00 B2112,2013-12-15 00:54:00,
2013-12-14 19:59:00,41.3,40.8,29.79,North,355,0.0,0.0,98,0.05,,,0.87,LWC V2.00 B2112,2013-12-15 00:59:00,
2013-12-14 20:04:00,41.3,40.8,29.79,North,351,0.0,0.0,98,0.00,,,0.87,LWC V2.00 B2112,2013-12-15 01:04:00,
2013-12-14 20:09:00,41.3,40.8,29.79,North,355,0.0,0.0,98,0.00,,,0.88,LWC V2.00 B2112,2013-12-15 01:09:00,
2013-12-14 20:14:00,41.2,40.7,29.79,North,351,0.0,0.0,98,0.00,,,0.88,LWC V2.00 B2112,2013-12-15 01:14:00,
2013-12-14 20:19:00,41.2,40.7,29.79,North,355,0.0,0.0,98,0.00,,,0.88,LWC V2.00 B2112,2013-12-15 01:19:00,
2013-12-14 20:24:00,41.2,40.7,29.78,North,351,0.0,0.0,98,0.00,,,0.88,LWC V2.00 B2112,2013-12-15 01:24:00,
2013-12-14 20:29:00,41.2,40.7,29.78,North,355,0.0,0.0,98,0.00,,,0.88,LWC V2.00 B2112,2013-12-15 01:29:00,
2013-12-14 20:34:00,41.1,40.6,29.78,North,351,0.0,0.0,98,0.00,,,0.88,LWC V2.00 B2112,2013-12-15 01:34:00,
2013-12-14 20:39:00,41.1,40.6,29.77,North,355,0.0,0.0,98,0.00,,,0.88,LWC V2.00 B2112,2013-12-15 01:39:00,
2013-12-14 20:44:00,41.1,40.6,29.77,North,351,0.0,0.0,98,0.00,,,0.88,LWC V2.00 B2112,2013-12-15 01:44:00,
2013-12-14 20:49:00,40.9,40.4,29.77,North,351,0.0,0.0,98,0.00,,,0.88,LWC V2.00 B2112,2013-12-15 01:49:00,
2013-12-14 20:54:00,40.9,40.4,29.76,North,355,0.0,0.0,98,0.00,,,0.88,LWC V2.00 B2112,2013-12-15 01:54:00,
2013-12-14 20:59:00,40.8,40.3,29.76,North,355,0.0,0.0,98,0.00,,,0.88,LWC V2.00 B2112,2013-12-15 01:59:00,
2013-12-14 21:04:00,40.8,40.3,29.76,North,355,0.0,0.0,98,0.00,,,0.88,LWC V2.00 B2112,2013-12-15 02:04:00,
2013-12-14 21:09:00,40.8,40.3,29.76,North,355,0.0,0.0,98,0.00,,,0.88,LWC V2.00 B2112,2013-12-15 02:09:00,
2013-12-14 21:14:00,40.6,40.1,29.76,North,351,0.0,0.0,98,0.00,,,0.88,LWC V2.00 B2112,2013-12-15 02:14:00,
2013-12-14 21:19:00,40.6,40.1,29.76,North,351,0.0,0.0,98,0.00,,,0.88,LWC V2.00 B2112,2013-12-15 02:19:00,
2013-12-14 21:24:00,40.6,40.1,29.76,NNE,17,0.0,0.0,98,0.00,,,0.88,LWC V2.00 B2112,2013-12-15 02:24:00,
2013-12-14 21:29:00,40.5,40.0,29.76,NE,36,0.0,0.0,98,0.00,,,0.88,LWC V2.00 B2112,2013-12-15 02:29:00,
2013-12-14 21:34:00,40.5,40.0,29.76,NE,36,0.0,0.0,98,0.00,,,0.88,LWC V2.00 B2112,2013-12-15 02:34:00,
2013-12-14 21:39:00,40.5,40.0,29.76,NE,36,0.0,0.0,98,0.00,,,0.88,LWC V2.00 B2112,2013-12-15 02:39:00,
2013-12-14 21:44:00,40.3,39.8,29.76,NE,36,0.0,0.0,98,0.00,,,0.88,LWC V2.00 B2112,2013-12-15 02:44:00,
2013-12-14 21:49:00,40.3,39.8,29.76,NE,36,0.0,0.0,98,0.00,,,0.88,LWC V2.00 B2112,2013-12-15 02:49:00,
2013-12-14 21:54:00,40.3,39.8,29.76,NE,36,0.0,0.0,98,0.00,,,0.88,LWC V2.00 B2112,2013-12-15 02:54:00,
2013-12-14 21:59:00,40.2,39.7,29.76,NE,36,0.0,0.0,98,0.00,,,0.88,LWC V2.00 B2112,2013-12-15 02:59:00,
2013-12-14 22:04:00,40.2,39.7,29.76,North,351,0.0,0.0,98,0.00,,,0.88,LWC V2.00 B2112,2013-12-15 03:04:00,
2013-12-14 22:09:00,40.2,39.7,29.78,North,351,0.0,0.0,98,0.00,,,0.88,LWC V2.00 B2112,2013-12-15 03:09:00,
2013-12-14 22:14:00,40.2,39.7,29.78,North,351,0.0,0.0,98,0.00,,,0.88,LWC V2.00 B2112,2013-12-15 03:14:00,
2013-12-14 22:19:00,40.2,39.7,29.78,North,351,0.0,0.0,98,0.00,,,0.88,LWC V2.00 B2112,2013-12-15 03:19:00,
2013-12-14 22:24:00,40.1,39.6,29.77,North,351,0.0,0.0,98,0.00,,,0.88,LWC V2.00 B2112,2013-12-15 03:24:00,
2013-12-14 22:29:00,40.1,39.6,29.77,North,351,0.0,0.0,98,0.00,,,0.88,LWC V2.00 B2112,2013-12-15 03:29:00,
2013-12-14 22:34:00,40.1,39.8,29.77,North,351,0.0,0.0,99,0.00,,,0.88,LWC V2.00 B2112,2013-12-15 03:34:00,
2013-12-14 22:39:00,40.1,39.6,29.74,North,351,0.0,0.0,98,0.00,,,0.88,LWC V2.00 B2112,2013-12-15 03:39:00,
2013-12-14 22:44:00,40.1,39.6,29.74,North,351,0.0,0.0,98,0.00,,,0.88,LWC V2.00 B2112,2013-12-15 03:44:00,
2013-12-14 22:49:00,40.1,39.8,29.74,North,351,0.0,0.0,99,0.00,,,0.88,LWC V2.00 B2112,2013-12-15 03:49:00,
2013-12-14 22:54:00,39.9,39.6,29.75,North,351,0.0,0.0,99,0.00,,,0.88,LWC V2.00 B2112,2013-12-15 03:54:00,
2013-12-14 22:59:00,40.1,39.8,29.75,North,351,0.0,0.0,99,0.00,,,0.88,LWC V2.00 B2112,2013-12-15 03:59:00,
2013-12-14 23:04:00,40.1,39.8,29.75,North,351,0.0,0.0,99,0.00,,,0.88,LWC V2.00 B2112,2013-12-15 04:04:00,
2013-12-14 23:09:00,40.1,39.8,29.75,North,351,0.0,0.0,99,0.00,,,0.88,LWC V2.00 B2112,2013-12-15 04:09:00,
2013-12-14 23:14:00,40.1,39.8,29.75,North,351,0.0,0.0,99,0.00,,,0.88,LWC V2.00 B2112,2013-12-15 04:14:00,
2013-12-14 23:19:00,39.9,39.6,29.75,North,351,0.0,0.0,99,0.00,,,0.88,LWC V2.00 B2112,2013-12-15 04:19:00,
2013-12-14 23:24:00,40.1,39.8,29.76,North,351,0.0,0.0,99,0.00,,,0.88,LWC V2.00 B2112,2013-12-15 04:24:00,
2013-12-14 23:29:00,40.1,39.8,29.76,North,351,0.0,0.0,99,0.00,,,0.88,LWC V2.00 B2112,2013-12-15 04:29:00,
2013-12-14 23:34:00,40.1,39.8,29.76,North,351,0.0,0.0,99,0.00,,,0.88,LWC V2.00 B2112,2013-12-15 04:34:00,
2013-12-14 23:39:00,40.1,39.8,29.74,North,351,0.0,0.0,99,0.00,,,0.88,LWC V2.00 B2112,2013-12-15 04:39:00,
2013-12-14 23:44:00,40.1,39.8,29.74,North,351,0.0,0.0,99,0.00,,,0.88,LWC V2.00 B2112,2013-12-15 04:44:00,
2013-12-14 23:49:00,40.1,39.8,29.74,North,351,0.0,0.0,99,0.00,,,0.88,LWC V2.00 B2112,2013-12-15 04:49:00,
2013-12-14 23:54:00,39.9,39.6,29.73,North,351,0.0,0.0,99,0.00,,,0.88,LWC V2.00 B2112,2013-12-15 04:54:00,
2013-12-14 23:59:00,39.9,39.6,29.73,NNW,331,0.0,0.0,99,0.00,,,0.88,LWC V2.00 B2112,2013-12-15 04:59:00,